Home   Weather   Nizhny Novgorod   Past weeks

Flag for Russia Past Weather in Nizhny Novgorod, Russia — Yesterday and Last 2 Weeks

Now
72 °F

Thundershowers. Scattered clouds.


Feels Like: 75 °F
Forecast: 53 / 74 °F
Wind: No wind

Location: Kazan'

Current Time: Jul 21, 2017 at 6:20:45 pm

Latest Report: Jul 21, 2017 at 5:30 pm


Visibility: N/A

Pressure: 29.86 "Hg

Humidity: 69%

Dew Point: 61 °F

Location of Nizhny NovgorodLocation

Past Weather in Nizhny Novgorod — Graph

°F

Nizhny Novgorod Temperature Yesterday

Maximum temperature yesterday: 77 °F (at 11:30 am)
Minimum temperature yesterday: 61 °F (at 1:30 am)
Average temperature yesterday: 70 °F

High & Low Weather Summary for the Past Weeks

 TemperatureHumidityPressure
High86 °F (Jul 17, 2:30 pm)100% (Jul 8, 3:30 am)30.09 "Hg (Jul 8, 3:30 am)
Low50 °F (Jul 8, 10:00 pm)42% (Jul 14, 2:00 pm)29.27 "Hg (Jul 6, 4:00 pm)
Average66 °F73%29.88 "Hg
* Reported Jul 6 4:00 pm — Jul 21 4:30 pm, Nizhny Novgorod. Weather by CustomWeather, © 2017

Note: Actual official high and low records may vary slightly from our data, if they occured in-between our weather recording intervals... More about our weather records

Advertising

Nizhny Novgorod Weather History for the Previous 24 Hours

Scroll right to see more
 ConditionsComfort  
Time TempWeatherWind HumidityBarometerVisibility
4:30 pm
Fri, Jul 21
73 °FThundershowers. Scattered clouds.1 mph65%29.86 "HgN/A
4:00 pm72 °FScattered clouds.6 mph73%29.86 "HgN/A
3:30 pm70 °FScattered clouds.6 mph73%29.89 "HgN/A
3:00 pm72 °FScattered clouds.3 mph65%29.89 "HgN/A
2:30 pm75 °FScattered clouds.1 mph57%29.86 "HgN/A
2:00 pm73 °FScattered clouds.6 mph61%29.89 "HgN/A
1:30 pm72 °FScattered clouds.8 mph61%29.89 "HgN/A
1:00 pm70 °FPartly sunny.8 mph64%29.89 "HgN/A
12:30 pm70 °FPartly sunny.8 mph60%29.92 "HgN/A
12:00 pm70 °FPartly sunny.8 mph60%29.92 "HgN/A
11:30 am72 °FPartly sunny.8 mph61%29.92 "HgN/A
11:00 am70 °FPartly sunny.8 mph64%29.92 "HgN/A
10:30 am66 °FThundershowers. Scattered clouds.10 mph73%29.95 "HgN/A
10:00 am64 °FPartly sunny.10 mph78%29.95 "HgN/A
9:30 am63 °FPartly sunny.10 mph83%29.95 "HgN/A
9:00 am63 °FPartly sunny.10 mph83%29.95 "HgN/A
8:30 am63 °FPartly sunny.8 mph77%29.95 "HgN/A
8:00 am66 °FPartly sunny.13 mph73%29.95 "HgN/A
7:30 am64 °FPassing clouds.13 mph78%29.95 "HgN/A
7:00 am64 °FThundershowers. Scattered clouds.6 mph83%29.95 "HgN/A
6:30 am64 °FThundershowers. Passing clouds.8 mph78%29.92 "HgN/A
6:00 am64 °FPassing clouds.10 mph78%29.95 "HgN/A
5:30 am63 °FScattered clouds.10 mph83%29.95 "HgN/A
5:00 am63 °FThundershowers. Scattered clouds.13 mph77%29.95 "HgN/A
4:30 am63 °FThundershowers. Scattered clouds.15 mph88%29.95 "HgN/A
4:00 am63 °FThundershowers. Partly sunny.6 mph88%29.95 "HgN/A
3:30 am63 °FThundershowers. Passing clouds.6 mph83%29.92 "HgN/A
3:00 am63 °FPassing clouds.3 mph88%29.92 "HgN/A
2:30 am63 °FClear.3 mph83%29.92 "Hg10 mi
2:00 am63 °FClear.1 mph83%29.92 "Hg10 mi
1:30 am64 °FClear.6 mph78%29.92 "Hg10 mi
1:00 am66 °FClear.6 mph73%29.95 "Hg10 mi
12:30 am66 °FClear.3 mph73%29.95 "Hg10 mi
12:00 am66 °FClear.No wind78%29.95 "Hg10 mi
11:30 pm
Thu, Jul 20
68 °FClear.1 mph73%29.95 "Hg10 mi
11:00 pm66 °FClear.3 mph73%29.95 "Hg10 mi
10:30 pm66 °FClear.1 mph73%29.95 "Hg10 mi
10:00 pm70 °FClear.1 mph69%29.95 "Hg10 mi
9:30 pm70 °FPassing clouds.3 mph64%29.95 "HgN/A
9:00 pm72 °FPassing clouds.3 mph61%29.95 "HgN/A
8:30 pm72 °FClear.1 mph65%29.95 "Hg10 mi
8:00 pm72 °FSunny.1 mph61%29.95 "Hg10 mi
7:30 pm72 °FSunny.1 mph61%29.95 "Hg10 mi
7:00 pm75 °FSunny.1 mph54%29.95 "Hg10 mi
6:30 pm73 °FSunny.3 mph57%29.95 "Hg10 mi
6:00 pm75 °FSunny.1 mph54%29.95 "Hg10 mi
Weather by CustomWeather, © 2017

See weather overviewHow to use our weather pages